Вернуться в каталог

STARLINK-2418

АктивенСвязьVLEO
NORAD 48097·PAYLOAD·🇺🇸 United States

Запущен Apr 7, 2021 с Cape Canaveral Space Force Station

Loading…

Ближайшие Пролёты (ближайшие 24 часа)

TLE

СвежийSource: CelesTrak SupGP

Эпоха: Sep 14, 2026, 21:15 UTC

1 48097C 21027F   26257.88590278  .00001316  00000+0  41287-4 0  2572
2 48097  53.1595 352.4110 0002107  30.0701 158.6764 15.32477991    11

Отслеживайте STARLINK-2418 в реальном времени с AllMySat

Download on the App Store